Regional Weather Roundup
Issued by NWS

Home | Current Version | Previous Version | Graphics & Text | Print | Product List | Glossary On
Versions: 1 2 3 4 5 6 7 8 9 10 11 12 13 14 15 16 17 18 19 20 21 22 23 24 25 26 27 28 29 30 31 32 33 34 35 36 37 38 39 40 41 42 43 44 45 46 47 48 49 50
000
ASUS45 KSLC 242210
RWRUT

UTAH REGIONAL WEATHER ROUNDUP
NATIONAL WEATHER SERVICE SALT LAKE CITY UT
400 PM MDT FRI APR 24 2015

UTZ001>011-023>025-242300-

NORTHERN UTAH

CITY           SKY/WX    TMP DP  RH WIND       PRES   REMARKS
BRIGHAM CITY   CLOUDY    63  35  35 W17G28    29.66R
HILL AFB       CLOUDY    62  34  35 W26G32    29.66S
LOGAN          PTSUNNY   62  34  35 S8        29.63F
OGDEN          CLOUDY    62  34  35 W17G25    29.66R
PROVO AIRPORT  PTSUNNY   64  32  29 SW26G54   29.68S
SALT LAKE CITY LGT RAIN  61  35  37 VRB3      29.66R
VERNAL         PTSUNNY   63  28  26 N6        29.68F
WENDOVER       CLOUDY    64  34  32 W16       29.66S
HEBER CITY     CLOUDY    57  36  44 SE5       29.71F
WEST JORDAN    CLOUDY    54  43  66 W12G29    29.70R

$$

UTZ012>022-026-027-242300-

SOUTHERN/CENTRAL UTAH

CITY           SKY/WX    TMP DP  RH WIND       PRES   REMARKS
BLANDING       PTSUNNY   61  25  25 SW7G17    29.86F
BRYCE CANYON   PTSUNNY   53  24  32 SW16      29.85F
CEDAR CITY     PTSUNNY   64  28  25 S26G33    29.78F
DELTA          CLOUDY    56  39  53 S20       29.72F
HANKSVILLE     MOSUNNY   72  23  16 SW20G31   29.70F
MILFORD        CLOUDY    62  31  31 SW28G35   29.75F
MOAB/CYNLANDS  MOSUNNY   70  19  14 SW12G31   29.66F
PRICE          PTSUNNY   65  23  20 NW8       29.71F
ST GEORGE      CLOUDY    66  43  42 NW7       29.76S
KANAB          PTSUNNY   61  32  33 SW8       29.86F

$$

REGIONAL REPORTS     COLORADO/ARIZONA

CITY           SKY/WX    TMP DP  RH WIND       PRES   REMARKS
CRAIG, CO      CLOUDY    54  30  40 S15G28    29.73F
GRAND JUNCTION CLOUDY    63  26  24 VRB3      29.70F
RIFLE          CLOUDY    51  34  52 E12       29.81S
MONTROSE       CLOUDY    56  24  29 S17       29.81R
CORTEZ         CLOUDY    59  20  22 NW9       29.81F
PAGE, AZ       CLOUDY    68  27  21 VRB5      29.77F
GRAND CANYON   CLOUDY    53  31  42 W13G28    29.92F
KINGMAN        MOSUNNY   71  33  24 SW21G35   29.86F
FLAGSTAFF      CLOUDY    43  41  93 SW16      29.97F

$$

REGIONAL REPORTS    NEVADA/IDAHO/WYOMING

CITY           SKY/WX    TMP DP  RH WIND       PRES   REMARKS
LAS VEGAS, NV  MOSUNNY   77  37  23 SW23G33   29.68F
ELY            LGT RAIN  44  41  89 E5        29.80F
ELKO           CLOUDY    50  39  66 W16       29.74F
POCATELLO, ID  PTSUNNY   52  38  58 W22       29.71S
BURLEY         CLOUDY    47  39  74 W10G17    29.72S
EVANSTON, WY   CLOUDY    53  30  41 W29G37    29.71F
ROCK SPRINGS   CLOUDY    43  37  79 SW28G35   29.77R
KEMMERER       CLOUDY    46  36  66 CALM      29.73F

$$


USA.gov is the U.S. government's official web portal to all federal, state and local government web resources and services.